Flag Weather past 2 weeks in Linköping, Sweden

Now
43 °F

Overcast.


Feels Like: 36 °F
Forecast: 41 / 44 °F
Wind: 14 mph from Southeast

Location: Linkoping / Saab

Current Time: Nov 23, 2014 at 6:23:54 PM

Latest Report: Nov 23, 2014 at 5:50 PM


Visibility: N/A

Pressure: 30.27 "Hg

Humidity: 87%

Dew point: 39 °F

Location of LinköpingLocation

Historic Weather in Linköping — Graph

°F

Linköping temperature yesterday

Maximum temperature yesterday: 43 °F (at 2:20 PM)
Minimum temperature yesterday: 32 °F (at 7:50 PM)
Average temperature yesterday: 36 °F

Past Weeks' High & Low Weather Summary

 TemperatureHumidityPressure
High50 °F (Nov 10, 2:50 PM)100% (Nov 8, 6:50 PM)30.45 "Hg (Nov 8, 6:50 PM)
Low30 °F (Nov 12, 2:20 AM)75% (Nov 19, 5:20 PM)29.77 "Hg (Nov 10, 5:50 PM)
Average41 °F94%30.16 "Hg
* Reported Nov 8 5:50 PM — Nov 23 5:20 PM, Linköping, Weather by CustomWeather, © 2014

Note: Actual official high and low records may vary slightly from our data, if they occured in-between our weather recording intervals... More about our weather records

Advertising

Linköping weather history for previous 24 hours

 ConditionsComfort  
Time TempWeatherWind HumidityBarometerVisibility
5:20 PM
Nov 23
43 °FPartly cloudy.12 mph87%30.27 "HgN/A
4:50 PM43 °FSprinkles. Partly cloudy.10 mph87%30.30 "HgN/A
4:20 PM43 °FSprinkles. Partly cloudy.12 mph87%30.30 "HgN/A
3:50 PM43 °FPartly cloudy.12 mph87%30.30 "HgN/A
3:20 PM43 °FLight rain. Partly sunny.12 mph87%30.33 "HgN/A
2:50 PM43 °FBroken clouds.12 mph87%30.33 "HgN/A
2:20 PM43 °FBroken clouds.10 mph87%30.33 "HgN/A
1:50 PM43 °FBroken clouds.10 mph87%30.36 "HgN/A
1:20 PM43 °FBroken clouds.9 mph87%30.36 "HgN/A
12:50 PM43 °FPassing clouds.9 mph87%30.36 "HgN/A
12:20 PM43 °FPartly sunny.9 mph87%30.36 "HgN/A
11:50 AM41 °FOvercast.8 mph93%30.36 "HgN/A
11:20 AM41 °FBroken clouds.7 mph93%30.36 "HgN/A
10:50 AM41 °FOvercast.8 mph93%30.39 "HgN/A
10:20 AM41 °FBroken clouds.8 mph93%30.39 "HgN/A
9:50 AM39 °FOvercast.9 mph93%30.36 "HgN/A
9:20 AM39 °FBroken clouds.8 mph100%30.36 "HgN/A
8:50 AM37 °FPartly sunny.7 mph100%30.36 "HgN/A
8:20 AM37 °FOvercast.7 mph100%30.36 "HgN/A
7:50 AM36 °FOvercast.6 mph100%30.36 "HgN/A
7:20 AM36 °FOvercast.3 mph100%30.36 "HgN/A
6:50 AM34 °FOvercast.6 mph100%30.36 "HgN/A
6:20 AM34 °FPassing clouds.5 mph100%30.33 "HgN/A
5:50 AM34 °FMostly cloudy.3 mph100%30.36 "HgN/A
5:20 AM34 °FOvercast.3 mph100%30.36 "HgN/A
4:50 AM34 °FPassing clouds.5 mph100%30.36 "HgN/A
4:20 AM34 °FOvercast.5 mph100%30.33 "HgN/A
3:50 AM34 °FOvercast.2 mph100%30.36 "HgN/A
3:20 AM34 °FPassing clouds.5 mph100%30.36 "HgN/A
2:50 AM34 °FOvercast.3 mph100%30.36 "HgN/A
2:20 AM34 °FOvercast.3 mph100%30.36 "HgN/A
1:50 AM32 °FOvercast.3 mph100%30.36 "HgN/A
1:20 AM32 °FOvercast.2 mph100%30.36 "HgN/A
12:50 AM32 °FOvercast.No wind100%30.36 "HgN/A
12:20 AM32 °FOvercast.1 mph100%30.36 "HgN/A
11:50 PM
Nov 22
32 °FOvercast.2 mph100%30.36 "HgN/A
11:20 PM32 °FOvercast.2 mph100%30.36 "HgN/A
10:50 PM32 °FOvercast.3 mph100%30.36 "HgN/A
10:20 PM32 °FClear.2 mph100%30.36 "Hg10 mi
9:50 PM32 °FMostly cloudy.No wind100%30.36 "HgN/A
9:20 PM32 °FMostly cloudy.No wind100%30.36 "HgN/A
8:50 PM32 °FLow clouds.3 mph100%30.33 "HgN/A
8:20 PM32 °FPassing clouds.6 mph100%30.33 "HgN/A
7:50 PM32 °FLow clouds.6 mph100%30.33 "Hg5 mi
7:20 PM34 °FPassing clouds.6 mph100%30.33 "HgN/A
6:50 PM36 °FPassing clouds.5 mph100%30.33 "HgN/A
6:20 PM36 °FPassing clouds.No wind100%30.30 "Hg4 mi
Weather by CustomWeather, © 2014

See weather overviewHow to use our weather pages